Theta_e
320 318 318 319 316 318 321 320 324 325 325 325 321 322 320 319 321 322 324 323 323 326 325 325 330 331 330 330 331 331 331 333 332 334 339 334 332 331 325 323 325 326 323 316 311 309 309 311 311 312 317 325 331 335 336 336 336 336 335 335 333 328 322 317 317 317 315 317 318 316 315 314 315 316 316 317 318 318 317 318 319 318 319 320 320 317 315 317 317 315 313 312 310 310 311 311 313
319 318 319 318 318 319 320 320 327 333 330 323 321 321 319 317 321 326 327 325 327 328 325 327 330 331 331 330 330 331 333 332 330 332 334 332 332 328 323 326 326 325 321 314 310 308 310 312 311 315 325 332 335 335 336 336 336 336 335 334 330 325 321 319 314 311 314 320 319 316 318 317 316 317 316 316 316 317 316 316 317 319 320 319 319 318 318 322 324 320 316 314 311 311 311 311 312
318 319 318 318 320 318 322 322 324 331 328 323 325 323 318 319 326 328 325 326 329 328 327 329 330 331 330 331 331 331 334 333 332 333 334 333 329 325 325 328 327 324 318 314 309 308 311 311 314 324 333 336 335 336 336 336 336 336 335 334 331 324 319 318 315 314 315 318 318 317 319 320 318 320 319 317 316 315 313 312 315 321 321 318 319 319 320 322 322 319 316 313 311 311 312 312 312
318 320 318 318 319 320 330 330 328 330 324 322 324 321 320 325 328 322 323 328 329 328 329 330 331 330 331 333 332 331 334 333 333 334 333 332 327 325 327 328 326 322 317 313 309 309 314 318 324 332 335 335 336 336 336 337 336 335 334 333 330 323 318 316 317 320 318 315 316 318 318 319 318 320 319 316 315 313 313 313 313 318 319 317 317 319 324 325 322 320 316 313 312 312 312 312 312
318 320 318 318 319 321 328 326 328 329 323 324 321 320 323 326 325 319 324 331 326 325 327 330 333 332 333 333 331 333 334 333 334 334 332 331 327 326 328 328 326 321 317 312 308 311 320 325 330 334 335 335 335 336 336 336 335 334 333 331 327 321 315 315 317 321 320 314 315 319 319 317 316 316 314 314 314 312 313 313 312 315 318 317 317 320 324 323 321 319 315 313 313 312 312 312 312
318 319 318 317 319 318 323 321 323 327 326 326 321 323 323 318 320 321 327 330 325 323 325 329 332 332 334 334 332 333 333 334 334 333 332 331 327 327 328 328 324 319 315 311 308 313 322 325 328 333 334 335 334 335 336 335 334 333 331 328 323 316 311 312 315 318 317 313 316 319 318 314 313 314 314 314 314 313 312 311 311 313 316 318 319 321 321 320 319 317 313 312 313 312 312 312 312
318 320 317 318 319 319 327 328 328 331 322 319 319 324 320 314 319 325 327 327 325 323 325 329 330 332 334 333 333 333 333 334 334 333 332 329 327 329 328 327 322 317 314 311 308 312 319 321 325 331 332 333 334 334 334 333 332 331 329 325 319 312 310 311 313 316 313 312 316 316 313 310 311 314 314 313 311 310 311 310 310 310 314 318 320 320 320 319 317 315 313 312 312 312 312 312 312
319 320 316 321 324 325 332 329 329 329 316 311 314 317 317 316 322 326 323 322 323 324 327 329 329 332 333 332 333 333 333 333 333 332 330 328 328 329 328 325 319 316 313 310 309 310 313 319 324 327 330 332 332 333 332 331 329 327 325 320 314 310 310 310 313 316 314 313 314 311 310 310 310 310 311 311 310 310 310 310 311 311 314 317 319 319 319 317 314 312 312 312 312 312 312 312 312
318 321 317 321 325 325 330 326 321 321 318 314 313 314 316 319 324 323 320 319 321 326 329 330 328 329 332 332 333 334 334 333 333 331 328 328 329 329 327 322 317 315 312 309 309 308 309 317 322 323 327 330 330 330 329 328 325 322 320 315 311 309 309 308 312 315 314 317 313 309 310 309 310 310 310 311 311 312 312 312 312 313 315 317 317 316 316 314 312 312 312 313 313 313 313 313 313
318 321 316 321 326 321 324 327 322 319 319 316 313 315 318 320 322 320 319 319 322 328 329 328 326 328 332 333 333 335 334 334 333 330 328 329 329 328 325 319 317 314 311 310 309 308 308 314 318 320 324 326 326 327 325 322 318 318 316 312 310 309 309 308 312 314 315 319 313 309 310 309 311 311 312 312 313 314 313 313 313 313 314 316 316 314 313 313 312 313 314 314 315 315 315 315 315
318 318 316 324 328 321 320 328 330 326 320 315 314 316 319 321 319 318 318 320 324 328 328 327 329 331 331 332 333 334 334 334 333 330 329 329 329 328 323 318 316 313 310 310 309 309 308 310 314 316 320 321 321 320 320 317 313 313 313 310 309 308 309 309 312 313 314 317 313 310 309 309 310 311 313 314 314 314 314 314 314 314 314 314 314 313 313 313 314 315 315 316 316 316 316 316 316
318 318 326 331 326 322 321 325 329 330 327 322 319 318 319 320 318 319 319 322 326 326 325 327 331 331 330 331 333 334 333 334 332 330 330 329 329 328 323 318 316 312 311 311 309 309 308 308 309 311 315 316 316 314 313 315 312 310 310 310 309 308 309 310 310 311 313 315 313 310 309 309 310 311 313 314 314 314 314 315 314 315 314 314 313 313 314 315 316 316 316 317 316 316 317 317 316
318 320 330 326 320 322 321 323 327 328 330 324 319 318 320 319 318 319 319 323 324 324 325 325 329 330 332 331 332 334 333 333 332 331 330 329 329 328 324 318 316 314 314 314 311 310 309 308 308 308 310 311 312 312 310 312 312 310 310 310 309 309 309 310 309 310 315 315 311 309 308 309 311 312 314 314 314 315 316 316 316 315 315 314 314 315 316 316 317 317 317 316 317 317 317 317 317
318 319 325 321 317 323 321 321 323 323 327 322 317 318 320 319 318 319 319 323 322 323 323 324 329 328 330 331 332 334 333 333 333 331 330 329 330 329 326 320 316 316 316 316 315 312 310 309 309 309 309 309 309 310 310 309 311 311 310 309 309 310 309 309 309 310 313 312 309 308 308 309 312 314 314 315 315 316 317 317 316 316 316 316 316 317 317 317 317 317 317 317 318 318 318 318 318
318 317 323 326 321 322 320 319 321 324 326 320 317 318 319 319 318 318 320 323 323 321 321 324 329 325 326 331 333 332 332 333 333 332 331 330 330 330 329 324 318 317 318 317 316 315 313 310 309 309 309 310 309 308 309 309 311 311 310 309 309 309 309 309 309 309 309 309 308 308 308 310 313 314 314 315 316 317 318 318 317 317 317 317 317 317 317 317 317 318 318 319 319 319 319 319 319
319 316 324 328 321 320 318 317 320 325 324 316 314 318 319 318 316 318 319 321 321 320 322 325 328 323 323 327 329 330 331 332 333 333 332 330 330 330 331 328 320 317 318 318 317 316 315 313 311 310 309 309 309 308 308 309 312 312 310 310 309 309 309 308 308 308 308 308 308 308 309 312 314 315 315 316 317 318 318 318 318 317 317 318 318 318 318 318 318 319 319 319 319 319 319 319 319
317 321 329 327 321 322 320 320 320 321 323 315 312 316 318 317 315 317 318 319 319 319 322 326 326 323 323 325 326 329 330 331 333 333 332 331 330 330 331 330 324 318 318 319 317 317 317 315 313 311 310 309 309 309 309 310 311 311 310 310 310 309 309 309 308 308 308 308 308 309 310 313 315 315 315 316 317 318 318 318 318 318 318 318 318 318 318 318 319 319 319 319 319 319 319 319 319
319 328 329 323 323 324 321 321 318 316 319 315 313 315 318 317 315 316 318 318 319 320 322 326 326 323 323 324 325 329 330 330 332 332 332 330 330 330 330 331 327 320 318 319 318 318 317 317 315 312 311 310 310 310 310 310 311 311 311 311 310 310 309 309 308 308 308 308 308 309 311 314 315 316 316 317 317 318 318 318 318 318 318 318 318 318 319 319 319 319 319 319 319 319 319 319 319
319 325 323 324 328 321 316 316 313 313 315 313 314 315 317 318 316 317 319 319 321 323 323 325 326 323 322 322 325 330 329 329 330 330 330 329 329 329 329 330 328 323 320 319 319 318 318 318 316 315 312 310 310 310 310 311 312 312 313 312 312 311 311 310 309 308 308 308 309 310 313 315 316 316 316 317 317 318 318 318 318 318 319 318 318 319 319 319 319 319 319 319 319 319 319 319 318
316 319 323 327 323 315 313 313 312 313 313 312 314 314 315 316 316 318 318 319 323 324 323 324 325 323 322 321 324 329 329 329 329 329 329 328 328 328 329 329 326 325 321 320 319 318 318 318 317 317 315 312 311 310 311 312 314 315 315 315 314 314 313 312 310 309 309 309 310 312 313 315 316 316 317 317 317 317 317 318 318 318 318 319 319 319 319 319 319 319 319 319 319 318 318 318 318
314 317 325 322 314 314 315 312 312 313 312 312 313 313 314 314 316 318 317 320 324 322 319 321 321 320 321 321 323 327 329 329 328 328 329 328 328 328 328 328 327 326 324 321 319 319 319 318 318 318 317 315 313 312 313 314 316 317 317 318 317 317 317 315 313 312 312 311 312 313 314 315 315 316 317 317 317 317 317 318 318 318 318 318 318 319 318 319 319 319 319 318 318 318 318 318 318
314 315 317 314 311 314 314 312 312 312 312 312 312 313 314 314 315 317 317 320 322 320 318 318 317 318 320 320 321 324 327 328 328 328 328 328 328 328 328 328 328 327 326 324 321 320 319 319 318 318 318 317 316 315 315 316 317 318 319 320 319 320 319 319 318 316 316 315 315 315 315 316 316 316 317 317 317 317 317 317 318 318 318 319 318 318 319 318 318 318 319 319 319 319 318 319 319
316 314 311 311 311 311 312 311 312 312 312 312 312 313 313 313 315 316 317 318 318 318 318 317 317 318 319 320 321 322 324 326 326 326 326 327 327 327 327 328 328 327 327 326 323 321 319 319 319 318 318 318 318 317 317 317 318 319 320 321 321 321 321 321 321 321 320 320 319 318 318 318 318 318 318 317 317 317 318 318 318 318 319 319 319 318 319 319 319 319 318 319 319 319 319 320 319
314 315 311 310 311 310 312 311 312 312 312 312 312 313 313 314 315 314 316 318 318 317 317 317 317 317 318 320 321 320 321 322 324 325 324 324 325 325 325 326 326 327 327 327 326 323 321 319 319 319 319 318 319 318 318 318 319 320 320 321 322 322 322 322 322 322 322 322 321 321 321 321 321 320 320 320 319 319 318 318 318 319 320 320 319 319 319 319 320 320 320 320 321 321 321 322 321
314 313 311 310 312 312 312 312 312 313 313 313 312 312 313 313 313 312 315 317 317 317 317 316 317 317 317 318 320 320 321 321 323 325 325 325 325 325 326 325 325 326 326 327 327 325 323 321 320 319 319 319 319 319 319 319 320 320 320 321 321 322 322 322 322 322 322 322 322 323 323 323 323 323 322 322 321 321 321 321 320 321 321 321 321 320 320 321 321 322 322 323 323 323 323 323 323
315 312 311 310 313 313 312 313 313 313 313 313 312 312 312 312 312 313 315 316 317 317 317 317 316 316 317 317 317 319 320 321 322 324 325 325 326 326 326 326 325 325 325 326 327 327 326 325 322 320 320 319 319 319 319 319 319 320 320 320 320 321 321 321 321 321 321 322 322 323 323 323 324 324 324 323 323 323 323 323 322 323 323 323 323 322 323 323 323 324 324 325 325 324 324 323 322
313 310 311 310 312 312 312 313 312 313 313 312 313 312 311 311 312 315 316 316 316 317 317 317 316 316 317 317 316 318 319 319 320 322 324 325 325 325 325 325 325 324 324 325 326 326 327 327 325 323 322 320 319 319 319 319 319 319 320 320 320 320 320 321 320 320 321 321 322 322 323 323 324 324 324 324 324 324 324 324 324 324 324 324 324 324 324 325 324 325 325 325 325 324 323 322 321
313 311 312 311 311 312 312 312 312 312 313 312 312 312 311 311 313 315 315 315 316 316 317 317 316 316 316 317 317 318 319 319 320 321 322 321 321 322 323 324 325 324 324 324 324 325 326 326 327 326 325 323 321 319 319 319 319 320 320 321 321 320 320 320 320 320 320 321 322 322 322 323 323 323 324 324 324 324 324 324 324 324 324 324 324 324 325 325 325 325 325 325 324 323 321 321 320
315 311 313 315 314 315 313 311 312 312 313 312 312 313 313 312 313 315 315 315 315 314 315 316 316 316 315 317 318 319 319 320 321 321 320 319 318 319 320 322 323 323 323 323 324 324 325 325 326 326 326 326 324 322 320 320 320 321 321 321 322 322 322 321 321 320 321 322 322 322 322 322 322 323 323 323 323 324 324 324 324 324 324 324 324 325 325 325 325 326 325 324 323 322 321 321 320
319 313 312 316 318 320 313 309 311 311 312 312 311 316 320 316 313 314 314 314 315 314 315 315 316 316 315 316 317 319 319 320 320 318 318 319 319 319 319 320 322 322 323 323 323 324 325 325 326 326 326 326 326 324 322 321 321 321 322 322 322 323 322 322 322 322 322 322 323 323 322 322 322 323 323 323 323 323 324 324 324 324 324 324 324 324 324 324 325 324 324 323 322 322 321 321 320
320 318 316 316 319 323 314 308 310 312 312 311 311 316 321 318 314 313 313 314 314 314 314 314 315 316 315 315 316 317 318 318 318 317 318 318 319 319 319 320 320 321 321 321 322 323 324 325 326 326 326 326 326 326 324 322 322 322 322 322 322 323 323 323 323 323 323 323 323 323 323 323 323 323 324 324 324 324 324 324 324 324 324 323 323 323 323 323 323 323 323 322 322 321 321 320 320
316 322 324 319 318 322 317 309 309 313 312 309 312 316 318 317 314 313 312 313 314 314 314 314 314 315 315 315 315 316 316 317 318 318 318 318 318 318 318 319 319 319 319 320 321 323 324 325 325 326 326 326 326 326 325 324 323 323 322 322 322 323 323 323 324 324 324 324 323 323 324 324 324 324 324 325 325 324 323 323 323 322 322 322 321 321 322 322 322 322 321 321 321 321 320 319 320
315 321 324 319 316 317 318 312 308 310 311 309 312 315 318 315 311 311 312 312 312 313 314 313 313 314 315 315 314 315 315 316 317 317 316 316 316 317 317 318 318 318 318 319 320 321 323 324 325 326 326 326 326 326 325 325 324 324 324 323 323 323 323 323 324 325 325 324 324 324 324 325 325 325 325 324 324 324 324 323 323 321 321 322 321 320 320 320 320 320 319 319 320 319 318 318 319
318 317 319 317 315 313 316 316 309 307 310 312 312 313 317 315 310 310 311 311 311 312 313 313 313 314 314 314 314 315 315 316 316 315 315 315 315 315 316 316 317 317 318 318 318 319 321 323 324 325 326 326 326 326 325 325 325 325 325 325 324 323 323 324 324 325 325 325 324 324 325 326 326 326 325 325 324 324 325 324 323 322 321 321 320 320 319 319 320 320 319 318 318 317 317 318 320
320 316 316 316 314 312 314 315 310 308 311 313 313 312 314 314 311 311 311 310 311 312 312 313 313 313 314 314 314 315 315 315 315 315 315 315 315 315 316 316 316 317 317 317 317 317 318 320 322 324 325 326 326 326 326 325 325 324 325 325 325 324 324 324 324 324 325 325 325 326 327 327 327 326 325 324 324 325 325 324 323 323 321 319 320 321 320 320 321 321 320 320 319 318 318 318 320
321 316 316 317 316 313 313 314 310 308 311 313 313 313 313 314 313 311 311 311 311 311 312 312 312 313 313 314 314 314 315 315 314 315 315 315 315 315 315 316 316 316 317 317 317 317 317 317 319 321 323 324 325 326 326 326 325 324 324 324 324 324 324 324 324 324 324 324 325 327 327 327 327 326 325 325 325 325 325 325 324 324 323 321 321 322 322 322 321 321 322 323 321 318 318 319 321
318 315 316 316 315 314 313 314 309 306 311 314 313 313 313 314 314 311 310 310 310 311 312 312 313 313 313 314 314 314 314 315 314 314 315 315 315 315 315 316 316 316 316 317 317 316 316 316 316 318 319 322 324 325 325 325 325 324 323 323 323 323 323 324 324 324 324 324 325 326 327 326 327 327 326 326 325 325 325 326 325 325 325 323 323 323 323 323 321 321 323 325 323 319 319 321 321
315 315 315 315 315 315 313 311 310 307 310 315 314 312 313 313 313 311 309 309 309 310 311 312 313 313 313 313 314 314 314 315 315 314 314 315 315 315 315 315 316 316 316 316 316 315 315 315 315 315 317 319 321 322 324 324 323 323 323 322 322 322 322 323 323 323 323 322 323 324 324 325 326 326 326 325 325 326 326 326 326 325 325 325 325 324 324 324 322 322 324 326 324 320 319 321 320
316 315 315 317 315 314 312 310 311 309 310 316 314 311 313 313 312 311 308 308 310 311 312 313 314 313 313 314 314 314 314 314 315 315 315 315 315 315 315 315 315 315 315 315 315 315 315 315 314 314 315 316 318 320 321 322 322 322 322 322 322 322 322 322 322 322 322 322 322 323 323 324 325 326 326 326 326 326 326 326 326 325 325 325 325 324 323 322 321 322 323 323 322 320 320 321 321
316 315 317 318 313 314 315 311 311 311 310 313 313 311 312 312 312 312 310 309 310 312 312 312 313 313 313 314 314 314 315 315 315 315 315 315 315 315 315 314 314 314 314 314 314 314 314 314 313 313 314 314 315 317 318 319 321 322 322 322 323 323 322 322 322 322 321 321 322 323 324 325 326 326 325 326 326 326 326 326 325 325 325 324 324 323 322 320 320 321 320 320 321 321 321 321 323
316 315 317 317 313 313 313 313 313 313 311 310 311 313 315 315 315 314 311 308 308 310 311 311 312 314 314 313 314 315 315 315 316 316 316 315 315 315 315 314 314 314 314 313 314 313 313 313 313 312 313 313 313 314 316 318 320 321 322 323 323 324 323 322 322 320 320 321 322 322 324 325 327 327 325 325 325 324 325 324 324 324 323 324 326 324 322 320 321 323 323 322 323 324 323 322 323
318 317 317 315 315 312 311 314 313 314 316 311 310 315 319 322 320 316 314 312 311 309 307 310 313 314 314 314 315 316 316 316 317 316 316 316 315 315 315 315 315 314 314 314 313 313 313 313 313 313 312 312 312 313 314 316 318 319 320 321 322 322 321 319 317 317 318 320 322 322 323 324 326 326 325 325 324 323 324 322 321 321 321 324 327 325 322 321 321 323 325 325 326 326 324 321 321
320 319 316 313 315 313 313 314 312 316 318 310 309 314 318 320 318 318 318 315 315 310 306 308 312 314 314 315 316 316 316 316 316 317 316 316 316 315 315 315 315 315 314 314 313 313 313 313 313 313 313 312 312 312 313 314 315 317 318 318 319 319 318 316 314 315 317 319 321 322 322 323 323 323 323 324 324 323 321 322 323 323 322 323 323 323 324 323 322 323 323 324 325 325 322 319 319
322 319 313 313 314 314 315 314 313 317 318 312 311 313 314 314 314 317 316 314 316 315 311 309 310 314 315 315 316 316 316 316 316 316 316 316 316 315 315 315 315 314 314 314 314 313 313 313 313 313 313 313 312 312 312 312 314 315 316 316 317 318 317 316 315 317 319 321 323 324 324 324 323 323 323 321 321 320 319 324 328 326 325 325 324 325 327 326 324 323 323 324 324 324 320 317 318
320 314 312 314 314 315 316 314 313 314 314 315 315 312 314 316 318 317 313 313 315 316 316 313 310 313 315 314 316 316 316 316 316 316 316 316 316 315 315 315 314 314 314 314 314 314 313 313 313 313 313 313 313 313 312 312 313 313 314 315 316 316 317 316 318 320 322 324 325 325 325 325 324 324 323 321 320 320 318 323 328 326 324 325 325 326 328 327 323 323 325 326 325 322 319 319 318
313 311 313 315 316 316 316 315 314 314 313 316 317 313 314 318 321 318 313 313 314 314 316 313 310 313 315 314 315 315 315 316 315 316 316 316 316 316 316 315 314 314 314 314 314 314 314 313 313 313 313 313 313 313 313 313 313 313 314 315 315 316 317 318 320 321 324 326 326 326 326 326 325 324 323 321 320 320 319 321 327 328 323 322 324 325 326 324 322 322 324 324 323 320 317 319 318
308 312 315 315 317 317 317 318 316 315 316 315 314 313 313 316 319 317 314 314 315 314 315 313 310 313 315 315 316 315 315 314 314 314 314 314 314 314 315 315 315 315 314 314 314 314 314 314 313 313 313 313 313 313 314 313 313 314 313 314 315 315 316 318 320 322 324 326 325 325 325 326 326 325 323 322 321 320 320 320 325 326 322 323 325 324 323 323 323 322 320 319 320 317 314 315 313
311 317 316 314 317 316 318 322 317 315 318 313 310 310 313 316 317 316 314 313 313 312 314 316 312 312 315 315 315 314 313 313 313 313 313 313 313 313 314 314 315 315 315 314 314 314 314 314 313 313 313 313 313 313 313 313 314 314 314 315 315 315 316 317 319 321 322 323 323 323 325 326 326 326 324 322 321 321 320 320 322 322 319 319 320 320 320 322 322 320 317 315 316 315 313 313 311
313 316 314 315 318 316 317 319 316 317 317 312 309 309 311 314 316 316 313 312 312 308 308 312 310 310 314 314 313 312 312 312 312 312 313 313 313 313 313 314 314 314 314 314 314 314 314 314 314 314 314 313 313 313 313 313 314 314 314 315 315 316 317 317 318 319 320 321 322 323 325 326 326 326 325 322 322 322 322 322 321 320 319 319 319 318 318 318 317 316 314 313 314 314 313 311 310
312 312 314 317 317 317 318 316 316 319 317 310 307 309 313 316 316 315 314 312 312 308 306 309 309 309 312 312 312 312 312 312 312 312 312 312 313 313 313 314 314 314 314 314 314 314 314 314 314 314 314 314 313 313 313 313 313 314 314 315 315 316 317 317 317 318 319 320 322 323 325 326 327 327 325 324 323 323 323 322 321 320 322 323 322 319 318 317 315 313 312 312 312 312 311 310 308
312 313 315 317 317 319 320 318 317 318 316 309 307 311 318 320 316 313 310 308 309 309 309 310 309 310 311 311 312 312 312 313 312 312 312 312 313 313 313 314 314 314 314 313 313 314 314 314 314 314 314 314 313 313 313 313 313 314 314 315 315 316 317 317 318 319 320 321 323 324 326 327 327 327 326 326 324 323 323 322 319 319 321 323 321 318 317 315 313 311 311 311 311 310 309 307 304
313 315 315 316 318 322 320 316 316 317 317 312 309 314 318 318 315 311 307 307 307 307 309 311 311 311 310 310 312 312 313 313 313 313 313 313 313 313 313 313 314 314 313 313 313 313 314 314 314 314 314 313 313 313 313 313 313 313 314 315 315 317 318 318 319 320 321 322 324 326 327 327 328 327 327 326 324 324 322 319 318 320 323 321 319 316 313 312 311 311 311 311 310 308 306 303 300
313 313 313 313 315 320 318 312 311 313 316 316 312 314 315 314 314 313 311 311 311 309 308 308 310 311 310 311 312 312 313 313 313 313 313 313 313 313 313 313 313 314 312 313 312 313 313 313 313 313 313 313 313 313 313 313 313 313 313 314 315 317 318 319 320 320 321 323 325 326 328 328 327 327 326 325 324 323 320 319 321 323 322 319 316 313 311 311 311 311 310 310 308 305 302 300 299
313 313 314 311 311 318 320 315 313 312 315 318 315 312 314 315 317 318 315 313 314 313 309 306 308 309 309 310 311 311 311 312 312 312 312 313 313 312 313 313 313 313 313 313 313 313 313 313 314 314 313 314 314 313 313 313 312 313 313 314 315 316 318 319 320 322 323 325 326 327 328 327 327 326 325 325 324 321 319 322 324 321 319 317 314 311 311 311 311 310 309 307 304 301 300 299 298
310 313 313 313 315 317 316 317 317 314 314 318 317 312 311 312 316 318 315 312 315 314 311 309 308 308 308 310 311 311 310 311 311 312 312 312 312 312 312 313 313 313 313 313 313 313 313 313 313 313 313 314 314 314 314 313 313 313 313 315 316 317 318 320 321 323 324 326 326 327 327 327 326 325 324 324 323 321 320 321 320 318 318 316 312 311 311 311 310 309 307 304 301 299 299 298 298
308 310 310 312 316 316 315 315 316 317 316 318 320 317 314 313 314 316 314 313 314 313 313 312 308 306 308 310 311 311 311 312 311 312 312 312 312 312 312 313 313 313 312 312 312 312 312 312 312 312 312 312 312 313 313 314 314 314 315 315 316 318 320 321 322 324 324 325 325 326 327 327 327 325 324 324 323 322 322 320 317 319 318 314 311 311 311 310 309 306 303 301 299 299 298 298 299
309 312 312 311 311 313 316 314 313 317 319 319 318 317 319 318 313 312 313 313 313 313 314 312 308 307 309 309 310 311 311 312 311 312 312 312 312 313 313 313 313 312 312 311 311 311 311 312 311 312 312 311 311 312 311 312 313 314 315 315 316 318 319 321 322 322 323 323 323 324 325 326 327 326 324 324 323 323 325 321 317 319 317 312 310 311 310 309 307 304 301 299 298 298 298 298 299
311 312 312 311 312 313 315 313 311 313 316 319 317 313 318 320 313 311 312 313 312 310 309 308 307 308 310 310 310 311 311 311 311 312 312 312 312 312 313 312 312 311 311 311 311 312 312 312 312 312 312 312 312 311 311 311 311 312 313 313 314 315 315 317 317 318 319 320 320 322 323 324 326 325 324 324 322 322 323 319 317 318 315 311 310 310 309 308 305 301 299 298 297 297 298 299 300
Wind_Speed
1 1 3 4 4 1 2 4 1 3 3 2 1 1 1 1 0 1 1 1 1 1 4 7 14 17 7 2 5 5 5 4 4 3 2 5 13 18 17 15 13 11 6 4 6 6 7 8 11 13 14 13 11 10 9 9 8 8 8 7 5 4 6 7 7 8 9 10 10 9 9 9 9 10 10 10 10 10 10 10 10 10 11 12 12 12 13 13 13 13 13 14 15 15 15 14 14
1 1 4 4 5 2 1 3 2 2 3 2 1 1 1 1 0 3 4 3 2 5 8 13 17 14 4 3 7 5 4 3 5 5 4 12 19 20 18 15 13 10 6 5 6 7 8 11 15 16 15 13 12 10 9 9 8 7 7 5 4 6 7 8 8 8 9 10 10 8 9 10 10 10 11 11 11 11 11 12 12 12 12 12 13 13 14 14 14 14 15 15 16 16 15 16 15
0 1 4 3 4 3 1 3 2 0 3 1 2 2 1 1 3 4 5 5 10 15 14 15 14 8 3 5 4 2 2 4 8 8 8 18 22 21 19 16 13 9 7 6 7 8 11 14 17 17 14 13 11 10 9 9 7 6 4 3 4 6 7 7 8 8 8 9 9 9 10 10 11 11 11 11 11 11 11 12 12 12 12 13 13 14 15 14 14 14 14 15 15 16 16 17 17
0 1 4 3 2 3 3 3 1 2 2 1 2 2 3 4 5 4 7 13 17 16 12 11 7 3 2 2 2 2 4 6 7 9 14 21 22 22 20 16 13 9 7 6 8 10 13 16 17 16 13 12 11 10 9 8 6 4 3 3 3 4 5 6 8 9 8 8 9 9 10 10 11 11 11 11 11 11 11 11 12 11 12 12 13 15 15 14 14 14 15 16 16 17 18 18 17
1 2 3 3 1 2 3 3 2 2 1 3 0 3 4 5 5 5 11 17 15 9 6 7 4 3 3 3 3 2 5 7 8 12 18 21 22 22 19 16 13 9 7 7 9 12 15 16 15 14 13 11 10 10 9 8 6 4 3 3 2 2 3 5 7 8 7 8 9 9 10 10 10 10 11 11 10 10 10 10 11 11 11 12 13 14 14 14 14 14 16 17 17 18 18 18 18
1 2 3 3 2 2 2 2 2 0 2 4 1 4 4 6 7 10 14 14 8 2 4 6 4 6 5 4 4 3 6 7 9 15 19 20 22 21 18 15 12 9 7 7 9 14 16 15 14 14 13 11 10 9 8 7 6 4 2 2 1 1 3 4 5 6 7 8 9 9 10 10 10 10 10 10 10 10 10 10 11 11 11 12 13 14 14 14 14 15 16 17 17 17 18 18 17
0 1 3 2 3 3 2 2 2 1 2 4 2 3 4 7 11 14 13 8 5 3 3 6 7 8 5 5 4 3 5 6 10 17 20 22 23 20 17 15 12 9 8 7 9 13 15 14 14 14 13 12 10 8 7 7 6 5 4 3 1 1 3 4 4 5 8 9 9 9 10 9 9 10 10 10 11 11 10 11 12 12 11 12 13 14 14 14 15 15 16 16 16 17 17 17 17
1 0 2 2 3 4 3 1 2 2 1 2 3 4 4 10 15 14 10 5 4 4 4 9 10 5 3 4 3 5 6 8 13 18 22 23 22 19 17 14 11 9 8 8 9 11 13 14 14 13 13 12 11 8 7 6 6 6 5 4 2 1 3 4 4 6 8 9 9 10 9 9 10 10 11 11 12 12 12 12 12 12 11 11 12 13 13 14 15 15 15 15 16 16 16 16 16
1 1 1 2 1 2 2 1 2 2 2 3 4 5 4 13 15 12 8 3 3 5 9 12 8 2 5 6 6 9 9 12 17 20 22 21 20 18 16 14 9 7 8 8 8 9 11 14 14 13 13 12 11 9 7 6 7 7 5 4 2 1 2 4 4 7 8 8 9 10 9 8 10 10 11 12 12 13 13 12 12 12 11 10 12 13 13 14 15 15 15 15 16 16 17 17 17
1 0 2 3 1 1 3 2 1 2 3 4 5 5 8 16 14 10 8 4 5 8 10 8 4 6 10 8 8 10 12 17 20 20 21 19 19 17 16 14 10 7 7 9 9 9 11 13 14 12 12 12 11 9 7 6 5 5 5 3 2 2 3 3 4 7 8 8 9 10 9 9 10 11 11 12 13 13 13 13 12 12 11 10 11 13 13 14 15 15 15 16 17 17 17 17 17
1 2 3 3 2 1 2 3 2 3 3 4 4 4 11 16 12 8 6 5 8 10 10 5 5 13 11 7 9 12 16 19 20 20 20 18 17 16 15 14 11 8 8 9 9 10 11 12 13 12 12 11 10 8 6 4 3 5 4 3 3 3 3 3 4 6 7 7 9 10 9 9 10 12 12 13 13 13 13 12 12 11 11 11 11 12 13 14 15 16 16 17 17 17 17 17 17
2 2 3 3 2 2 2 2 3 4 4 3 2 6 12 15 10 7 7 7 10 10 8 5 8 15 8 3 9 14 19 20 20 20 19 18 17 16 15 13 12 10 9 9 9 10 11 12 12 11 11 11 10 8 5 3 4 5 4 4 4 4 4 4 5 7 8 8 10 11 10 10 11 12 12 13 13 13 12 12 12 11 11 11 12 12 13 13 14 16 17 17 17 16 16 16 17
1 1 3 3 1 2 2 2 3 4 4 1 3 7 13 15 8 7 9 9 11 9 7 6 12 13 4 3 11 17 21 20 21 21 19 18 17 16 14 13 12 12 10 9 8 9 10 11 11 10 10 10 9 8 6 4 5 5 4 4 4 5 5 5 7 7 9 10 11 12 11 10 11 12 13 13 13 12 12 11 11 11 11 11 11 12 12 13 14 16 16 16 16 16 16 16 16
3 1 3 3 1 1 3 0 1 2 3 3 4 10 14 11 6 8 10 8 10 10 6 8 14 9 3 5 11 21 23 22 23 22 21 19 18 17 15 13 12 12 11 9 8 8 9 10 10 9 8 8 9 9 7 6 4 4 4 4 5 5 5 6 7 8 9 10 11 11 11 10 11 12 12 12 12 12 11 11 11 11 11 11 11 12 12 13 14 15 16 16 15 15 15 15 15
5 2 3 3 2 0 2 0 1 2 3 3 6 13 14 9 5 9 10 7 8 10 6 9 14 5 4 8 10 23 25 23 25 23 22 20 19 18 16 15 13 13 11 10 9 8 8 8 9 9 8 7 7 9 8 7 6 4 4 5 5 5 6 7 8 9 9 10 11 11 10 10 10 10 11 11 11 11 10 11 10 10 11 11 11 12 12 13 14 14 14 14 14 14 14 14 14
5 4 4 3 1 1 2 1 2 2 3 3 7 13 12 7 7 7 9 8 6 10 8 10 16 6 5 10 8 21 25 24 26 23 24 22 20 19 18 17 15 15 12 11 9 8 8 8 9 8 8 7 6 8 8 9 8 6 5 5 6 6 7 8 8 9 9 10 10 10 10 9 9 9 10 10 10 10 10 10 10 10 10 11 11 11 12 13 13 13 12 13 13 13 13 13 14
4 3 4 2 2 2 2 4 3 1 4 3 6 12 9 4 7 7 7 9 5 10 11 9 17 11 6 9 9 23 26 24 27 25 25 24 23 21 20 20 18 17 15 13 11 9 9 8 8 8 8 8 7 8 9 9 9 7 7 6 7 7 7 8 8 9 9 10 10 10 9 9 9 9 9 9 9 9 9 9 9 9 9 10 10 10 11 11 11 11 11 11 11 11 12 12 12
3 2 3 1 2 2 4 5 4 2 2 2 7 12 9 4 9 9 5 8 6 9 13 10 15 13 8 8 12 25 26 25 28 27 28 26 25 24 23 22 20 19 17 15 13 11 10 8 8 7 7 7 8 8 8 9 8 8 7 7 7 7 8 8 8 9 9 9 9 9 8 8 8 8 8 8 8 8 8 8 8 8 8 8 9 9 9 9 9 9 9 9 9 10 10 11 11
3 2 2 2 3 3 2 2 3 2 5 5 5 10 10 6 10 12 4 6 6 7 12 10 13 15 11 9 15 25 26 26 28 28 30 29 28 27 25 24 21 20 18 17 15 13 11 10 8 7 7 7 8 8 8 9 8 8 8 8 8 8 8 8 8 8 8 8 8 8 7 7 7 7 7 7 7 7 7 7 7 7 7 7 7 7 7 7 7 7 7 7 7 8 9 9 10
1 3 1 3 4 3 1 3 5 5 8 8 3 7 10 9 10 12 6 5 6 8 13 13 15 19 16 12 16 25 27 27 28 28 30 29 28 27 26 24 22 20 19 17 15 14 12 11 9 8 8 7 7 8 9 9 9 9 9 9 9 8 8 8 8 8 8 7 7 6 6 6 5 6 6 6 6 6 5 5 5 5 5 5 5 5 5 5 5 5 5 5 6 7 7 8 9
1 2 2 3 3 1 3 5 8 9 8 8 5 4 7 10 11 13 10 5 4 13 21 21 19 20 19 16 17 23 27 28 29 28 29 29 28 27 26 24 22 20 19 19 17 15 13 12 11 10 9 8 8 8 9 9 10 10 9 9 9 9 8 8 8 8 8 7 6 5 5 5 4 5 4 4 4 4 4 4 4 3 3 3 3 3 3 3 3 4 4 4 5 6 7 8 9
1 3 1 2 4 1 4 6 8 11 9 7 5 4 6 10 12 15 15 7 7 16 22 23 21 18 19 19 18 22 27 29 30 30 29 29 29 27 26 25 23 22 21 20 19 17 15 14 12 11 10 9 9 9 9 10 10 10 9 9 8 8 8 8 7 7 7 6 5 5 4 4 3 3 3 3 3 2 3 2 2 2 2 1 2 2 2 3 3 4 4 5 5 6 7 8 9
2 3 0 3 2 1 6 8 9 10 8 6 5 5 7 10 10 14 19 17 15 14 14 17 19 18 18 20 20 21 25 29 31 31 29 29 28 28 27 26 24 22 21 20 19 19 17 16 14 13 12 11 10 10 10 10 10 10 9 9 8 7 7 7 6 6 6 5 5 5 4 3 3 2 2 2 2 2 2 1 1 0 0 1 2 2 3 3 4 5 5 6 6 7 8 9 10
1 2 1 1 2 5 8 10 11 10 8 9 7 5 7 11 8 8 20 27 21 13 10 10 14 18 18 19 21 21 22 25 29 31 30 28 27 26 25 24 23 21 21 21 20 20 19 17 16 15 13 13 12 11 11 10 10 10 9 9 8 7 7 6 5 5 5 4 5 5 4 3 3 3 2 2 3 3 3 2 2 2 2 2 3 4 4 5 5 6 6 7 7 8 9 9 10
3 2 3 3 5 7 10 11 10 9 8 9 8 7 7 11 7 7 20 26 23 20 14 8 9 16 20 19 20 21 21 23 27 31 31 30 28 27 27 25 24 23 23 22 21 20 19 19 18 16 15 14 14 13 12 11 11 11 10 9 8 8 7 6 6 6 5 5 4 4 4 3 3 3 4 4 4 4 4 4 4 4 4 5 5 6 6 7 7 8 8 8 8 9 9 10 11
5 4 6 7 7 8 10 9 6 6 7 5 6 7 6 8 6 11 22 22 20 22 19 12 9 14 20 20 20 21 22 23 25 29 31 31 30 30 30 28 27 26 24 23 22 21 20 20 20 18 17 16 16 15 14 13 13 12 11 10 10 9 8 8 8 7 7 6 6 5 5 5 5 5 6 6 6 6 6 6 6 6 6 7 8 9 9 9 9 9 10 10 10 10 11 12 14
3 3 8 8 8 8 8 6 5 5 5 5 6 4 4 5 4 8 13 13 17 21 22 19 13 13 17 20 21 21 21 21 22 26 29 32 32 32 32 31 31 28 25 25 24 22 21 21 20 19 19 18 18 17 16 15 14 13 12 12 12 11 10 10 10 9 9 8 8 8 7 7 7 8 8 8 8 9 8 8 9 8 9 10 10 11 11 11 11 12 12 12 12 13 13 14 16
2 6 8 8 7 7 7 6 6 4 3 6 8 2 2 3 4 11 9 6 11 16 20 22 19 15 15 19 21 22 22 21 22 25 28 30 31 32 31 31 31 29 27 27 25 23 23 22 20 20 20 19 19 19 17 16 15 14 14 14 13 12 12 12 12 11 10 10 10 10 10 10 10 10 10 11 11 11 11 11 11 11 12 12 12 13 13 13 13 14 14 14 15 16 16 16 18
1 5 4 6 8 6 6 5 5 4 2 5 7 1 3 3 9 16 11 9 11 11 16 20 22 19 16 19 21 23 23 22 24 26 26 27 28 29 29 29 29 28 27 26 24 24 23 22 21 20 20 21 20 19 19 18 17 16 16 15 14 14 14 14 13 12 12 12 12 12 12 12 12 12 13 13 13 13 14 14 14 14 14 15 15 15 15 15 15 15 15 17 18 18 19 18 18
1 2 2 4 6 5 4 2 4 5 4 7 8 2 5 7 18 19 10 11 12 12 15 18 21 21 19 19 22 24 24 24 25 24 24 25 26 27 27 27 27 27 26 25 24 24 23 22 21 21 21 21 21 20 20 19 19 18 17 16 16 16 16 15 14 14 14 14 13 13 13 13 13 14 14 14 14 15 15 16 16 16 17 17 17 17 17 16 16 17 17 19 19 19 19 17 14
1 1 2 1 1 4 4 1 6 5 4 9 8 3 5 7 17 18 12 13 12 13 15 16 20 22 21 21 22 24 25 25 24 23 24 24 26 27 26 26 26 26 26 25 25 24 24 23 22 22 22 21 21 21 21 20 19 19 18 18 17 17 17 17 16 16 16 16 15 15 14 14 14 14 14 14 15 16 16 17 17 18 18 18 19 18 17 16 16 17 18 18 17 16 17 16 12
1 0 2 2 1 4 7 2 7 5 3 9 8 2 6 7 11 11 12 15 14 15 16 15 19 21 22 22 23 25 25 25 25 25 25 24 25 26 25 25 25 25 26 25 25 25 25 24 24 23 23 22 22 22 22 21 20 20 19 19 18 19 19 19 18 17 17 18 18 17 15 15 14 15 15 15 14 15 15 15 16 17 17 17 17 16 15 15 16 17 17 17 15 15 17 15 12
2 1 1 1 0 1 5 3 3 2 1 5 5 2 3 4 6 5 8 13 14 17 18 17 18 20 23 23 23 25 25 26 26 25 24 23 23 23 24 25 24 24 25 25 26 26 27 26 26 25 25 24 23 22 22 23 22 22 21 20 20 20 21 20 19 19 19 20 19 18 17 16 16 16 16 15 14 14 13 13 13 15 15 14 15 16 15 13 13 14 14 15 15 15 15 11 7
1 1 2 2 2 1 2 3 4 3 2 3 4 4 5 5 3 1 1 5 10 16 20 19 18 20 23 24 24 25 26 27 27 24 22 21 22 23 24 24 24 24 24 24 25 26 27 27 27 27 26 25 24 23 23 24 24 24 23 22 22 23 23 23 22 22 22 21 21 20 18 17 17 17 17 16 15 14 14 13 12 13 14 13 14 15 15 12 11 10 10 10 11 12 10 6 5
5 4 3 2 2 1 1 2 4 4 1 3 4 4 9 10 10 10 6 4 8 12 15 17 20 21 22 24 25 25 26 27 25 22 22 23 24 24 24 24 25 25 24 24 24 25 26 27 28 28 27 27 26 25 24 24 25 26 26 26 26 26 26 25 25 25 24 23 22 20 19 18 18 18 18 17 16 15 16 15 11 11 13 13 12 12 13 13 10 8 8 9 11 10 8 6 7
7 5 4 3 3 2 2 3 2 2 1 4 5 6 9 10 11 14 11 9 10 11 12 15 18 21 23 24 26 27 28 28 24 23 24 26 27 26 26 26 26 26 26 26 25 26 26 27 29 29 29 29 28 28 27 27 27 28 29 29 29 29 28 28 27 27 26 25 23 21 20 20 19 19 19 18 17 16 17 17 13 12 14 14 13 13 12 11 10 9 9 9 10 10 8 8 9
8 5 4 4 2 2 3 3 3 1 1 4 4 5 9 10 10 12 10 9 11 13 15 17 18 19 22 24 27 28 30 29 25 25 28 27 27 27 27 28 28 28 28 28 27 27 26 27 29 30 30 30 30 31 31 30 30 30 30 31 31 31 30 29 28 28 27 26 24 22 22 21 21 21 20 19 18 17 18 19 17 15 16 16 16 15 13 11 10 9 10 10 10 9 6 6 7
7 5 4 4 3 3 4 3 4 1 2 4 2 3 9 11 12 13 9 7 12 17 18 20 22 20 20 21 24 27 28 27 26 28 29 27 27 27 27 28 29 30 28 28 28 27 26 27 28 29 30 31 32 32 32 32 32 31 31 31 31 31 31 30 29 28 26 25 23 23 23 22 22 22 21 20 19 19 19 20 19 17 17 18 17 16 15 14 12 10 11 13 12 10 7 5 6
6 5 5 3 2 2 4 3 3 1 2 3 2 1 8 11 12 13 12 12 17 22 22 23 24 22 21 22 23 24 24 25 26 28 29 27 26 26 27 29 29 29 27 28 29 28 28 29 28 28 30 32 33 33 34 33 33 32 30 30 30 30 30 29 28 26 25 24 23 23 23 23 23 22 22 21 20 20 21 21 20 18 18 18 18 17 16 14 12 11 12 12 12 11 8 7 7
4 4 5 3 2 1 3 2 3 1 2 2 1 3 6 8 9 10 13 18 21 24 24 24 25 24 25 26 25 25 25 26 26 26 26 27 27 27 28 28 27 28 28 29 30 29 29 30 29 29 30 31 32 33 34 33 33 31 30 30 29 29 28 27 26 25 26 25 25 24 24 23 22 22 21 21 22 23 23 23 21 20 19 18 17 16 15 12 9 8 10 11 11 11 9 10 12
2 4 5 3 3 3 3 2 4 2 2 1 2 4 5 6 8 9 8 9 15 20 20 22 25 26 27 27 27 28 28 29 29 27 25 25 27 28 28 27 27 28 29 29 29 28 29 30 30 30 30 30 30 31 33 33 33 33 32 31 31 30 30 29 28 28 28 27 27 26 24 22 21 22 22 21 23 24 24 23 21 20 17 16 16 14 13 13 10 9 11 12 12 12 12 13 13
2 3 6 6 7 5 3 2 5 3 3 2 2 3 5 4 6 9 5 3 8 12 13 19 25 24 26 28 28 30 30 31 32 31 29 26 25 27 29 29 29 29 29 28 27 27 28 30 30 30 31 31 30 31 31 33 34 34 34 34 34 34 33 32 31 29 28 27 26 25 23 21 20 21 22 21 22 22 21 20 18 16 15 16 16 15 14 13 12 12 13 14 15 15 15 13 13
2 5 8 8 7 6 4 1 2 0 2 1 2 2 5 6 5 7 4 4 8 9 9 17 25 25 26 28 29 30 30 31 32 33 33 30 27 26 29 30 30 29 28 26 26 27 28 28 29 30 31 32 32 31 31 32 34 35 35 35 35 36 35 34 31 28 27 26 24 23 21 21 20 20 20 20 21 21 20 18 16 15 15 16 16 16 17 14 13 13 13 15 16 15 15 14 15
3 6 11 9 6 7 5 3 2 3 2 2 3 2 3 6 6 5 2 4 9 8 8 13 22 26 28 29 31 31 31 31 31 32 32 32 31 28 29 30 30 29 27 25 25 26 27 26 26 28 31 33 33 33 33 33 34 35 35 35 36 36 36 33 30 28 27 25 23 22 21 20 20 19 20 20 21 20 19 19 18 18 17 17 16 18 20 18 16 16 16 16 15 15 16 16 17
4 5 9 8 7 6 4 4 3 2 2 3 2 2 2 6 6 3 2 5 9 10 8 10 17 23 25 27 30 31 32 32 33 32 31 31 32 32 31 30 30 30 29 27 25 25 26 26 26 27 29 32 33 33 34 34 35 35 35 35 36 36 35 32 30 28 28 26 25 24 22 20 19 19 20 21 20 20 20 20 20 21 20 20 19 20 21 20 20 19 18 17 16 17 17 17 18
3 7 7 4 3 4 3 3 2 1 1 4 2 2 2 7 6 2 1 4 7 8 7 10 17 23 23 24 25 25 27 30 31 31 30 30 31 33 34 34 33 32 31 29 27 26 26 26 27 28 28 30 31 33 34 35 35 35 35 36 36 36 34 32 31 31 30 29 28 26 24 22 21 21 21 21 21 21 20 20 22 23 23 22 22 22 22 22 23 21 21 21 20 20 18 17 17
9 7 6 6 4 4 3 1 2 1 3 3 3 4 3 5 5 4 4 5 6 7 7 9 16 23 25 25 25 24 24 25 26 26 27 27 29 32 35 37 37 37 35 33 31 30 28 28 28 29 28 28 29 31 34 35 35 36 36 36 36 35 34 33 33 32 32 31 30 28 26 24 22 22 22 22 22 22 21 22 24 25 25 24 23 23 23 24 25 24 23 23 22 21 18 15 12
10 4 4 4 2 3 3 3 2 3 4 3 5 3 5 7 6 3 5 5 4 7 7 8 13 20 25 25 25 20 18 19 20 21 23 23 24 26 30 34 36 38 38 37 36 34 31 29 29 28 29 29 29 29 32 34 36 36 36 35 35 35 34 34 34 33 32 31 30 29 27 25 23 22 23 23 23 24 24 23 24 25 24 24 25 25 26 25 24 23 20 18 19 19 15 11 9
6 3 6 5 1 1 1 2 1 4 5 3 4 2 4 9 6 4 8 8 8 10 13 14 16 21 23 23 22 17 13 15 15 16 18 17 18 20 23 27 29 32 35 36 37 36 33 30 30 30 29 29 29 29 30 32 35 36 36 35 34 33 33 34 34 33 32 31 30 29 27 26 24 23 24 25 23 24 25 24 23 22 20 20 21 23 23 22 19 17 16 15 16 15 13 10 9
7 6 7 6 4 4 6 4 2 4 4 2 2 2 4 6 3 6 11 12 15 15 18 21 22 25 26 26 26 22 19 18 17 16 16 15 15 16 18 22 24 26 29 32 34 34 33 31 31 32 30 29 29 29 29 30 32 34 34 34 33 33 33 33 33 32 31 30 30 29 27 26 24 23 24 24 23 24 25 25 23 20 18 19 20 21 21 19 16 15 15 14 14 13 12 10 9
8 6 5 5 5 5 6 5 3 4 2 1 2 2 3 2 2 6 10 13 17 18 19 22 25 28 28 29 30 29 28 24 21 20 18 17 17 16 16 18 21 22 24 28 31 32 33 32 32 32 30 29 29 30 30 29 30 31 32 32 32 33 32 32 31 30 30 29 28 28 26 25 24 23 23 24 24 23 24 24 22 19 19 22 23 21 18 17 15 14 14 14 13 12 11 10 9
3 2 3 3 4 4 3 4 4 3 2 1 3 4 4 3 5 9 8 9 13 16 18 20 24 26 25 26 27 27 27 25 23 22 21 21 20 18 16 16 17 18 19 22 26 28 31 31 31 31 30 29 29 30 30 30 29 29 30 31 31 31 31 31 30 29 29 28 27 26 25 24 23 23 24 25 24 23 23 22 19 18 21 23 22 18 16 15 15 15 15 14 13 12 11 10 9
2 3 5 4 4 6 5 2 1 3 2 3 2 4 5 4 7 9 7 7 9 12 14 16 19 20 20 24 24 22 22 20 18 18 19 21 22 21 17 15 14 14 14 17 20 23 26 27 29 29 29 29 29 30 30 30 30 30 31 31 31 30 30 30 30 29 28 27 26 26 25 24 23 24 25 25 24 23 22 19 18 21 23 22 18 17 16 16 17 16 15 14 13 12 11 10 9
5 6 7 3 3 3 4 2 2 2 3 4 2 5 5 3 5 6 4 4 10 11 8 9 13 13 14 18 19 17 17 16 13 13 14 16 18 20 17 13 12 11 11 12 14 17 20 21 23 24 25 26 27 28 30 30 31 32 32 32 32 31 30 30 29 28 27 26 26 26 25 25 25 25 25 24 24 22 20 19 22 24 22 18 17 18 18 17 17 16 15 14 13 12 11 10 9
4 5 5 4 3 2 2 3 2 2 3 4 3 4 4 5 6 4 3 3 7 10 8 7 9 10 10 13 15 13 12 12 13 13 12 11 12 15 14 11 10 9 10 11 12 14 15 17 19 21 23 24 25 27 28 30 31 32 32 32 32 32 31 31 30 29 28 27 27 26 26 26 26 26 25 24 24 22 21 23 24 23 19 18 18 18 18 18 17 16 15 14 14 13 12 10 9
2 2 3 1 2 3 3 3 3 3 3 3 3 4 3 6 6 5 7 8 8 11 11 8 10 10 9 12 14 14 11 10 11 12 10 7 8 11 11 11 10 10 11 11 12 13 15 16 18 20 22 23 25 27 28 29 29 30 31 31 32 32 32 31 30 29 29 29 28 27 27 27 26 27 26 25 25 23 22 23 22 21 19 18 19 19 19 19 18 17 16 15 14 14 12 10 9
4 5 6 4 1 1 2 2 2 4 4 3 2 4 5 5 4 8 11 10 10 12 10 9 12 12 11 11 12 13 11 10 9 9 8 6 7 9 10 10 10 10 11 12 13 14 15 16 17 18 20 21 23 25 27 28 28 29 30 30 30 31 30 30 29 29 29 29 29 28 28 28 28 28 27 26 25 24 25 25 22 20 19 19 20 20 20 20 19 18 17 16 15 14 12 10 8
7 6 7 8 5 3 4 3 1 2 3 4 2 5 7 4 4 7 9 9 11 11 7 7 12 12 12 11 9 8 7 6 6 7 7 7 7 8 8 8 9 10 11 12 13 13 14 14 15 16 17 18 20 22 24 26 28 29 30 29 29 29 28 28 28 28 29 28 28 29 28 28 28 28 27 26 25 26 27 27 23 20 20 21 21 21 21 21 20 19 18 17 16 14 12 10 8
Wind_Direction
188 101 58 55 23 48 23 20 93 21 64 92 326 195 222 191 171 190 182 184 155 199 168 152 155 154 147 189 172 128 107 156 165 146 175 166 151 149 153 157 152 150 150 117 105 117 125 129 133 128 127 128 131 132 128 127 120 118 114 114 118 85 62 75 93 92 92 101 108 113 115 122 121 113 108 104 99 93 92 93 91 85 82 83 81 76 77 77 74 74 77 78 78 76 72 70 69
213 90 54 56 21 16 260 21 84 329 42 60 281 196 267 325 242 185 184 213 161 128 139 145 150 152 135 124 133 107 99 130 141 134 151 155 148 149 152 153 149 148 138 115 116 120 127 132 129 124 123 127 134 132 129 130 125 127 126 125 103 57 62 81 88 91 96 104 112 116 111 115 114 106 101 95 91 89 87 88 90 88 86 81 78 78 79 81 80 78 77 74 71 70 70 69 68
263 77 53 47 13 31 100 33 76 88 57 46 276 238 258 171 201 202 186 159 125 119 124 136 143 144 120 113 118 107 131 138 137 132 145 152 151 152 151 150 148 145 135 119 121 127 133 132 128 125 125 129 133 133 132 131 133 143 145 114 69 42 57 80 88 95 105 111 112 109 103 101 99 96 95 93 91 93 90 90 91 88 85 79 77 79 77 80 83 81 76 71 68 67 67 67 65
322 64 50 32 10 35 63 41 115 121 78 211 291 256 218 188 204 200 155 136 124 121 123 133 133 138 137 118 131 126 145 157 155 148 152 155 155 152 149 150 148 140 133 125 126 134 137 133 129 128 128 132 135 135 132 135 145 147 139 109 65 38 60 86 95 100 110 118 111 101 97 95 95 92 91 90 90 92 88 88 89 85 83 81 80 82 80 80 81 79 73 69 69 66 65 64 62
339 40 37 7 4 44 86 68 103 94 138 190 48 263 224 199 195 164 150 145 131 113 128 138 123 135 125 107 140 150 164 162 166 161 155 157 155 150 150 149 145 141 137 129 132 141 141 136 133 133 131 135 140 140 138 146 161 148 126 125 81 45 76 93 100 106 110 115 110 98 93 90 90 90 88 87 86 86 84 84 86 84 82 80 78 81 83 83 81 77 71 68 66 64 63 62 60
21 51 33 26 73 83 119 96 109 146 227 175 171 256 233 203 179 151 153 160 158 102 145 155 144 141 114 92 105 127 159 162 170 164 156 156 153 149 150 147 144 144 142 134 139 148 148 142 139 139 136 138 141 146 156 166 177 179 171 163 131 60 94 100 105 111 111 116 113 100 94 88 84 84 84 85 84 83 83 83 83 84 80 77 77 77 77 78 78 75 69 66 64 62 62 61 60
105 37 8 58 68 44 104 133 176 232 229 174 181 245 236 192 166 146 150 168 200 238 187 177 156 135 112 105 102 128 168 180 173 162 154 153 151 150 149 146 147 146 144 139 143 153 156 151 145 144 144 144 144 153 173 183 193 199 202 192 161 98 95 104 117 106 106 120 116 101 96 88 83 80 81 85 86 86 84 83 85 86 79 75 78 78 79 79 78 74 69 66 65 64 62 62 62
179 271 4 81 42 26 90 130 232 209 224 238 242 257 235 175 162 149 154 168 185 205 176 165 153 128 129 137 120 129 140 159 161 155 151 151 150 150 148 145 147 147 143 138 144 156 163 161 151 148 152 151 150 162 181 192 204 198 194 191 156 118 77 86 117 104 99 114 114 107 101 90 87 83 81 84 87 88 87 87 87 88 83 76 79 81 82 82 80 76 71 69 69 67 65 64 63
176 227 25 76 78 35 47 334 268 242 265 266 259 260 210 165 162 152 154 162 165 170 157 160 165 160 154 140 125 130 129 144 150 149 149 151 151 149 146 143 143 144 140 136 143 153 161 165 159 154 156 157 159 171 185 194 204 189 177 181 163 125 79 71 100 103 100 107 111 112 106 94 93 92 89 90 91 91 91 90 87 88 88 81 79 81 81 81 81 77 73 72 71 68 66 66 65
189 67 114 79 100 38 337 294 284 268 252 259 263 248 181 165 164 157 153 151 163 162 160 170 198 168 148 135 135 141 143 148 149 150 152 152 152 151 147 141 139 143 140 136 140 148 153 163 166 165 164 166 171 178 189 196 193 175 163 169 158 122 108 87 96 106 109 107 112 114 107 98 95 97 95 96 95 94 93 92 91 89 91 88 81 79 80 81 81 79 74 73 70 68 67 66 66
213 50 107 83 78 130 263 248 284 275 265 292 274 213 174 169 159 154 147 139 161 165 170 185 174 154 140 133 147 151 152 154 155 155 156 156 157 155 150 142 141 146 144 138 140 145 150 161 169 172 173 177 185 190 199 198 159 151 150 152 141 128 120 111 106 113 122 116 118 119 110 100 98 100 97 97 96 95 94 93 93 91 90 87 83 81 82 82 81 80 74 71 69 68 67 65 65
205 39 79 96 127 191 202 222 274 291 301 324 208 181 173 171 161 162 158 150 162 171 189 197 166 152 127 136 159 158 160 159 160 161 159 160 162 158 153 147 145 148 147 144 143 144 147 157 167 174 179 187 198 201 201 171 126 137 139 143 140 132 124 115 108 112 125 118 116 119 114 105 101 103 98 97 96 95 96 95 96 93 90 85 83 83 81 82 80 79 74 71 69 67 66 64 63
125 121 88 124 165 169 156 203 270 323 319 270 176 173 172 175 179 187 168 155 164 172 203 201 170 156 119 162 166 166 167 165 161 164 164 162 166 163 157 154 152 153 151 149 147 146 147 151 159 170 180 191 205 209 203 171 128 128 137 152 141 129 122 117 112 112 120 115 114 118 116 109 103 101 97 97 96 95 96 97 97 92 90 86 86 85 82 80 77 76 74 72 69 67 66 63 61
65 127 96 139 69 124 162 247 329 20 297 255 169 166 170 180 199 197 170 156 177 178 192 192 172 161 141 159 176 176 170 167 165 164 166 167 170 166 163 163 161 160 156 153 151 150 151 150 153 163 173 184 204 210 207 190 157 139 146 149 133 125 119 117 119 115 116 115 118 119 115 110 104 102 99 99 98 98 97 95 94 91 90 88 87 85 82 79 74 71 69 69 68 64 63 60 57
55 73 79 119 47 354 187 37 81 101 251 232 160 167 168 182 197 197 187 175 191 187 180 182 177 178 182 173 189 181 170 167 168 166 169 171 174 171 170 171 172 170 166 160 155 156 155 155 157 163 170 171 192 200 197 185 179 171 154 142 131 128 124 122 126 120 118 117 118 118 116 111 105 104 104 104 104 102 100 95 93 93 91 88 87 85 81 78 73 69 64 62 60 58 56 54 51
43 63 73 93 74 228 188 171 134 105 254 220 161 170 166 182 186 187 202 194 195 192 186 182 186 205 194 187 191 177 171 167 168 169 172 175 177 176 177 178 179 178 176 171 164 164 159 159 163 167 172 165 171 179 179 177 177 177 157 145 139 134 131 129 129 124 121 119 118 119 117 112 106 106 107 107 107 103 101 96 94 93 92 90 87 83 79 75 72 67 61 56 52 51 49 47 45
33 62 68 75 146 197 196 180 182 167 272 253 176 177 162 175 189 185 203 199 205 197 195 194 198 212 198 191 185 175 174 169 170 173 175 179 181 181 184 184 185 183 182 181 175 172 166 164 166 167 171 167 164 163 166 169 171 170 157 151 146 139 136 130 129 125 122 121 121 123 120 116 113 111 112 111 108 104 102 99 98 96 94 93 87 82 77 73 70 65 59 52 46 43 41 40 38
22 93 92 183 173 188 185 177 203 192 337 304 190 187 175 178 184 179 184 196 213 204 202 205 204 211 200 188 178 175 176 174 173 177 179 183 185 186 189 189 190 189 188 187 185 180 172 168 169 168 169 169 168 164 161 162 163 163 157 154 148 140 136 129 128 125 122 125 126 127 124 121 120 121 120 115 112 107 104 102 101 97 93 90 86 81 75 72 67 61 56 48 41 35 32 30 28
40 110 110 207 197 212 197 201 250 252 330 319 202 194 194 199 182 179 185 196 193 195 207 214 211 209 192 179 180 179 179 180 179 182 185 187 190 191 192 193 193 193 194 194 192 186 179 174 172 169 170 173 172 170 164 161 160 159 156 153 147 140 137 131 130 127 127 130 129 130 126 125 125 126 126 121 119 113 110 108 102 98 92 86 81 78 73 70 63 56 51 43 35 27 22 19 15
49 110 120 221 217 248 323 349 331 322 310 310 265 208 207 208 187 185 191 181 185 206 211 211 212 207 193 178 183 185 184 186 186 187 190 192 195 196 196 196 196 197 198 198 198 194 188 181 176 171 172 174 175 175 170 164 161 161 158 153 148 142 137 135 134 132 134 133 132 130 125 127 128 129 130 128 126 122 120 115 108 101 93 85 77 72 64 59 54 45 39 32 24 17 12 7 3
236 150 173 193 177 249 344 354 345 339 320 301 277 224 218 211 195 191 179 149 219 230 221 219 220 209 196 187 186 192 192 191 192 192 195 197 198 200 201 201 200 200 199 200 201 200 196 190 185 180 177 177 177 177 174 170 167 166 163 159 154 147 142 140 139 138 138 136 134 131 127 128 131 135 135 135 135 133 132 125 120 108 94 86 71 60 44 34 26 17 12 8 5 1 356 353 350
221 221 220 141 138 196 322 341 335 332 327 294 253 220 223 203 200 201 186 179 227 232 230 230 232 222 208 201 194 196 199 199 198 198 200 201 202 203 204 204 204 203 201 202 203 203 202 198 194 190 187 183 181 180 179 179 176 172 168 165 162 156 151 147 145 145 142 141 143 141 137 135 135 139 140 147 152 152 150 145 133 114 92 72 45 24 8 359 351 346 344 343 340 339 338 338 338
216 244 317 110 119 307 319 332 330 326 319 286 254 236 219 193 206 213 204 215 227 235 246 241 237 231 221 214 206 203 205 206 206 206 206 206 206 206 207 207 207 206 205 205 205 207 207 204 202 200 197 192 188 188 187 186 182 179 176 172 171 166 162 158 156 155 155 153 157 159 157 157 159 163 170 181 192 199 198 199 196 212 318 338 329 325 326 321 319 319 319 321 322 323 326 328 327
214 246 275 119 347 330 322 322 321 318 302 284 271 250 221 200 210 220 220 228 228 233 257 256 241 230 224 219 215 216 215 215 215 213 213 212 213 211 211 212 211 210 210 208 208 209 210 210 209 208 206 203 199 198 198 196 191 188 187 185 183 181 177 174 176 175 176 173 174 178 177 179 187 200 215 228 234 239 245 246 249 261 277 288 294 296 295 296 298 298 301 305 310 312 313 314 311
222 235 293 304 318 324 323 317 315 313 298 287 261 245 236 215 213 236 236 234 228 229 241 260 246 226 224 223 220 223 222 220 219 216 215 215 215 215 215 215 214 213 213 211 211 211 212 213 214 215 214 211 209 207 208 207 204 202 200 199 199 200 197 196 200 202 203 203 203 204 204 208 214 224 234 241 245 249 253 256 257 263 273 276 276 278 281 284 286 288 293 296 300 303 302 302 300
207 222 290 296 300 316 325 314 319 318 292 276 240 245 253 219 220 254 248 244 236 231 234 245 249 229 226 226 224 224 224 223 222 220 218 216 216 216 217 217 217 215 215 214 215 214 214 215 217 218 219 219 218 216 216 215 215 214 212 212 213 215 215 217 218 218 220 221 223 227 229 232 236 242 250 254 254 256 257 258 260 264 269 271 272 274 276 279 281 284 287 289 292 292 292 295 295
188 323 300 285 295 308 316 300 296 307 287 249 216 236 259 199 187 253 252 245 236 232 233 237 245 241 231 230 229 226 227 228 228 225 221 219 218 219 220 220 220 218 216 216 217 217 217 218 218 219 222 223 223 224 224 223 221 221 221 222 222 224 225 228 230 229 228 229 230 233 236 239 242 246 252 259 260 260 261 260 261 263 265 266 268 271 275 278 281 282 282 285 285 285 289 292 294
213 348 302 281 317 309 286 280 269 263 274 235 207 213 272 158 193 240 239 233 231 230 233 235 238 243 238 234 231 228 229 229 230 228 225 225 223 222 222 223 223 221 219 219 219 219 220 220 221 222 224 225 226 228 228 228 227 226 226 227 227 228 230 232 234 235 234 235 236 238 240 241 245 248 251 255 258 260 262 262 262 262 262 264 266 268 273 276 277 279 279 281 281 284 288 289 295
232 2 311 291 338 325 269 261 234 205 228 212 178 225 276 192 228 239 237 243 247 241 236 234 234 238 240 235 231 229 230 229 229 231 232 232 229 228 227 227 227 226 225 224 222 222 223 223 224 226 227 228 228 229 230 230 230 229 229 230 230 231 233 235 235 237 239 240 241 241 241 242 244 247 250 253 255 259 261 262 262 260 260 263 265 266 268 271 273 274 274 277 281 284 287 291 299
202 19 8 312 341 323 275 229 184 175 189 177 155 238 269 236 239 239 240 245 246 246 242 238 234 234 237 236 232 231 231 231 232 235 237 236 234 232 232 231 231 230 230 227 225 225 225 225 227 229 230 230 230 231 231 231 231 232 232 231 232 233 235 237 238 240 242 244 244 242 241 242 242 245 249 252 254 257 259 261 261 260 261 262 265 267 269 271 273 275 277 282 289 291 293 301 305
164 349 347 352 317 274 298 86 155 160 190 176 153 243 263 260 252 242 240 243 242 244 244 243 238 234 236 238 237 235 234 235 238 239 239 239 238 237 236 235 234 234 232 228 225 224 226 227 228 231 233 233 232 233 232 233 234 235 236 236 235 236 237 239 241 243 246 248 246 243 242 242 243 245 247 250 253 255 257 260 262 264 265 266 268 271 273 276 278 282 286 291 296 298 299 304 304
54 146 311 3 179 268 316 349 165 169 199 177 157 238 260 272 270 252 239 236 237 242 245 246 243 238 237 240 241 239 238 238 239 239 239 241 242 241 240 238 237 237 235 232 228 226 226 227 228 231 234 235 234 235 235 235 236 237 238 239 239 239 240 241 242 246 248 249 248 246 245 245 246 247 248 251 255 259 262 265 267 268 270 272 274 276 277 281 285 288 292 293 293 292 295 302 305
11 146 215 323 132 273 321 333 179 172 122 186 197 230 264 280 276 257 238 232 232 238 244 243 244 242 239 241 243 242 240 238 238 239 240 241 243 244 243 241 240 239 239 238 234 232 230 228 229 231 233 236 237 238 238 237 237 238 240 242 244 244 244 244 244 245 247 248 248 248 247 249 251 251 251 254 261 267 271 271 273 277 278 277 278 280 283 288 293 297 299 296 293 293 297 309 321
342 154 178 203 186 164 286 324 354 7 114 203 236 233 243 264 274 249 232 238 233 237 246 245 243 244 241 241 242 242 241 240 242 243 243 244 244 245 245 245 243 242 242 241 239 237 235 233 232 233 235 237 239 240 241 241 240 240 241 244 246 247 246 246 245 244 245 246 247 247 249 251 253 255 255 256 262 267 269 268 274 282 282 279 281 285 291 296 299 308 316 317 316 313 312 325 341
177 174 162 197 210 179 268 282 353 8 1 226 221 237 256 264 268 266 270 268 246 248 257 254 248 245 244 243 242 243 243 243 245 246 245 244 244 244 245 247 246 245 244 241 241 240 238 236 235 235 235 236 238 240 242 243 243 240 240 241 243 244 244 244 243 243 243 243 244 245 248 251 253 256 257 257 261 267 272 275 278 283 285 284 284 287 296 298 296 306 320 329 332 327 317 314 315
167 162 148 162 197 230 265 259 298 31 335 269 225 225 255 261 265 266 262 254 249 257 264 259 254 249 247 246 245 244 245 247 249 248 246 244 244 245 246 247 248 248 246 244 243 242 240 238 236 236 234 235 237 238 240 240 241 239 238 238 239 240 241 241 241 241 241 240 241 243 246 249 252 255 257 258 261 265 272 278 280 281 286 286 281 281 291 296 294 301 312 321 328 326 318 308 302
146 133 130 125 133 266 265 263 303 86 184 272 248 233 257 260 263 267 258 250 249 248 253 257 257 254 251 250 249 248 248 251 254 251 248 247 247 247 247 248 248 248 247 246 245 243 242 239 238 237 235 236 236 236 237 237 238 238 237 237 237 238 240 240 240 240 240 240 240 242 244 245 247 250 253 255 258 262 265 271 275 277 282 286 284 282 283 286 288 293 296 299 313 322 317 305 301
139 138 146 128 126 250 254 251 303 15 176 269 305 260 263 262 264 264 247 236 251 246 246 254 257 257 257 255 255 255 255 257 257 255 252 250 248 247 247 247 247 248 249 248 248 246 245 243 241 239 236 236 236 237 238 238 238 238 239 240 240 241 241 241 242 242 244 245 245 246 245 246 246 247 249 251 253 258 261 264 269 274 278 282 286 283 279 278 276 274 278 283 296 307 299 293 302
139 133 142 160 171 247 267 265 312 16 183 266 357 309 262 263 265 262 241 231 251 255 252 258 261 260 260 260 261 261 263 264 262 259 257 254 251 247 245 246 246 248 248 248 249 248 247 246 244 241 239 237 236 237 239 238 239 240 241 243 244 245 245 244 245 245 246 246 245 245 246 246 247 247 248 250 251 254 257 259 262 265 267 271 276 278 277 277 273 264 268 274 283 292 291 287 294
125 126 143 185 189 210 240 254 310 300 184 253 317 307 275 270 271 268 248 238 250 259 259 260 260 260 263 263 265 266 267 268 268 265 261 256 252 248 245 244 245 246 246 246 246 246 246 245 244 242 241 240 238 238 239 239 241 242 243 245 246 246 245 243 242 241 240 240 240 241 242 245 248 250 248 247 249 250 251 253 254 256 260 263 266 272 274 269 263 262 268 274 277 281 286 289 287
131 148 153 164 182 194 209 274 321 322 7 15 334 306 279 257 258 262 258 244 249 255 257 257 255 256 261 262 263 266 268 270 271 271 268 262 253 248 247 247 246 246 246 246 247 247 247 246 244 243 244 244 242 240 240 240 241 241 241 241 242 241 239 237 235 234 233 234 237 238 241 244 249 254 252 249 248 249 250 250 252 255 257 257 261 271 272 261 255 259 270 271 270 272 278 285 284
189 197 175 173 178 176 205 315 5 14 344 356 13 297 274 276 261 253 266 279 256 254 258 258 256 256 257 259 263 266 268 269 270 270 270 268 258 249 247 247 247 246 246 246 248 248 248 247 246 245 245 244 243 242 241 240 240 240 239 238 237 236 236 235 233 233 234 235 239 242 245 247 248 250 251 251 251 250 249 250 253 255 251 249 255 263 262 257 255 254 262 266 267 272 273 275 279
212 211 179 175 164 153 183 241 48 78 251 276 72 226 267 306 283 258 275 288 267 261 263 258 257 257 254 257 263 266 267 267 267 267 266 266 263 254 247 245 245 244 244 245 247 248 247 247 246 244 244 243 243 242 241 240 240 240 239 239 238 238 238 238 237 237 239 242 247 250 253 254 253 250 248 250 252 250 246 246 248 247 247 247 248 253 254 255 258 256 261 266 266 268 268 269 273
235 204 168 167 159 166 179 132 162 228 259 325 41 121 268 289 264 264 301 288 279 273 271 260 255 256 256 257 260 262 265 266 266 266 265 263 262 259 251 247 245 244 244 246 247 248 248 248 247 245 243 242 242 241 241 241 240 240 241 241 241 241 242 242 241 241 244 248 251 253 254 256 255 252 249 250 252 249 242 239 243 244 246 246 246 255 256 252 257 263 262 260 258 261 266 268 266
245 185 155 169 168 169 155 123 198 264 357 310 1 103 261 273 262 296 326 255 263 266 264 257 250 250 253 256 258 259 260 262 264 265 266 264 261 259 256 251 248 246 245 246 248 251 251 248 246 245 244 242 240 240 240 241 242 242 243 243 243 243 244 244 244 244 247 249 251 251 252 253 252 250 250 251 251 250 242 236 242 247 245 243 246 252 252 250 256 260 255 251 256 262 263 260 259
178 136 103 101 108 100 103 134 180 42 313 243 215 127 255 274 257 254 293 245 245 258 262 259 255 253 254 257 259 259 260 261 263 265 265 265 262 259 257 254 251 248 246 246 247 251 252 249 244 243 243 243 241 239 239 240 241 242 242 243 244 244 245 244 244 244 246 249 251 251 250 250 251 250 249 250 251 251 245 235 236 240 242 242 244 247 249 252 254 252 249 251 259 260 253 248 253
127 118 84 69 51 59 72 78 110 120 267 244 222 159 148 277 261 189 215 222 205 228 250 258 258 256 256 259 260 262 262 262 262 262 263 264 263 261 257 255 253 252 250 247 246 249 252 251 246 243 243 243 243 241 240 240 240 241 242 243 244 245 245 244 244 244 245 247 249 250 250 250 251 251 251 250 250 251 247 239 234 236 239 241 242 245 246 249 251 252 253 252 252 252 249 248 250
133 118 117 106 30 44 41 0 64 219 251 256 249 185 153 237 253 182 226 244 209 214 229 245 251 251 251 252 257 263 265 262 259 258 260 261 264 265 261 257 255 255 254 251 248 248 250 249 246 245 244 242 242 241 240 239 239 241 242 243 244 245 245 245 245 245 246 247 249 251 252 252 252 252 252 250 248 251 251 246 241 240 242 244 243 242 243 246 250 253 252 245 243 245 247 243 230
150 121 137 135 84 103 216 268 197 236 246 231 232 196 199 241 250 241 249 255 241 226 230 242 252 258 260 259 262 267 265 261 259 258 258 261 268 271 265 261 258 257 256 252 249 247 246 245 243 244 244 243 242 241 241 240 240 241 242 243 245 245 246 246 247 247 248 249 251 253 253 253 253 252 251 251 249 252 253 252 250 249 250 250 247 244 246 248 247 246 245 240 237 236 231 220 204
179 166 165 160 144 166 205 207 208 249 254 249 216 196 259 279 279 233 237 245 248 246 250 257 262 268 272 274 276 279 273 266 264 264 263 266 277 281 273 264 261 261 257 250 244 241 240 240 241 243 244 244 243 242 243 242 241 241 242 244 245 246 246 247 248 248 248 249 250 252 252 252 253 251 251 252 251 249 250 252 251 246 241 241 247 250 249 246 241 238 236 229 220 213 204 196 190
186 182 165 169 167 176 195 190 194 223 234 275 258 209 213 227 259 232 233 252 263 267 268 268 270 271 275 278 281 283 281 277 273 270 269 271 278 283 280 269 262 263 259 247 238 233 233 236 240 243 244 245 244 242 243 243 243 243 243 244 244 245 246 247 248 249 249 249 250 250 251 251 251 249 248 250 251 247 246 249 249 240 234 241 252 252 240 232 229 223 216 207 199 193 188 186 186
199 159 139 211 193 143 143 183 175 163 170 227 221 230 216 210 275 269 251 258 271 271 268 267 268 273 279 281 281 282 283 282 279 274 271 270 271 274 278 274 262 259 255 244 234 230 232 235 239 242 245 246 245 243 242 243 244 244 243 244 244 245 245 245 246 246 247 247 247 248 248 249 249 246 243 246 249 248 247 249 245 237 240 248 252 242 225 218 215 209 202 196 190 185 183 182 183
137 164 193 210 154 117 113 191 54 95 189 243 217 251 286 307 287 281 274 273 280 276 271 270 270 274 279 279 280 282 280 283 280 273 270 267 263 259 264 270 263 255 248 238 232 231 233 236 240 243 246 247 246 245 244 243 244 243 243 244 244 244 244 244 244 245 246 246 245 245 244 244 243 241 242 245 247 248 249 245 237 236 244 250 243 225 213 208 203 199 195 190 186 184 182 181 182
139 187 195 143 101 99 111 152 4 69 213 270 259 246 274 277 265 300 337 276 268 276 278 276 275 277 282 284 293 295 286 284 281 272 271 269 258 249 251 260 261 255 249 242 237 237 238 241 244 246 248 249 249 248 246 245 244 243 243 243 243 244 243 244 244 244 245 245 244 243 240 238 236 236 241 244 245 246 241 232 232 240 247 244 228 213 205 200 196 194 190 185 184 184 184 185 187
159 192 181 135 163 210 141 157 172 158 224 277 300 281 254 212 229 292 339 255 259 281 293 293 282 285 299 304 312 319 305 287 277 268 268 269 254 245 247 253 254 251 251 250 248 248 248 248 249 250 251 251 251 250 249 248 247 245 244 243 243 244 243 244 244 244 244 243 242 240 238 237 235 236 239 240 243 245 237 230 234 243 245 232 218 207 199 196 192 191 189 184 185 187 188 189 189
65 134 173 159 149 172 170 163 160 165 203 248 309 319 268 222 209 206 234 247 254 268 275 278 277 286 309 311 308 312 309 296 279 263 256 252 236 235 240 244 248 251 254 257 257 258 257 256 256 256 256 256 255 254 253 252 250 249 247 245 244 243 243 243 243 243 243 241 241 238 236 236 236 237 236 236 241 242 238 238 239 242 241 225 212 204 196 194 192 189 188 187 189 191 190 191 191
155 161 183 198 160 124 155 158 131 135 161 197 274 289 263 248 199 186 209 228 237 247 256 264 276 293 313 315 308 305 303 298 282 256 241 232 220 225 235 241 250 256 260 263 263 263 264 263 263 263 262 262 261 259 258 256 255 253 251 249 247 246 244 243 243 243 242 242 240 237 235 233 233 236 235 232 234 231 233 241 241 238 233 220 210 203 195 194 194 190 188 188 193 193 192 194 196
178 175 191 189 171 137 150 198 222 98 158 178 178 263 267 244 196 200 206 211 224 231 231 248 270 293 313 318 316 314 320 316 284 248 229 222 214 220 233 244 255 261 263 265 266 268 270 270 270 269 267 267 265 263 260 257 256 254 253 253 251 250 248 246 245 244 242 241 238 235 235 232 230 234 234 230 231 228 233 241 240 232 224 214 207 201 196 196 195 193 191 190 193 194 195 198 203